sat.trackr.live / text

‹ back to catalog

HAWK-C

NORAD 43799 · 2018-099AT

PAYLOAD ACTIVE UNKNOWN

§ Identity

Operator
Country
US
Launch date
2018-12-03
Launch site
AFWTR
Launch vehicle
Mass (kg)
RCS (m²)

Purposes: tech_demo

External: N2YO · Heavens-Above · Gunter

§ Orbital elements

Epoch: 2026-05-25T03:22:45.037056Z

Period
94.26 min
Inclination
97.3907°
Eccentricity
0.0040756
Mean motion
15.27711845 rev/d
Perigee alt
454.7 km
Apogee alt
510.6 km
Semi-major
6,860.8 km
B*
2.8548e-4
RAAN
198.4803°
Arg perigee
9.6582°
Mean anomaly
350.5432°
Rev number
41,039

§ Raw data

HAWK-C1 43799U 18099AT  26145.14079904  .00007845  00000+0  28548-3 0  99942 43799  97.3907 198.4803 0040756   9.6582 350.5432 15.27711845410394

JSON: /api/v1/satellites/43799 · /tle

For live sub-satellite position, see the globe view (requires WebGL).

§ Visibility from observer

Set your observer location to see the next 7 days of passes ≥ 10°. The values pass through the URL so the page stays shareable.

No JS? Fill the form by hand. The geolocation button needs JavaScript.